Location: Laverne
(36.7100°N, 99.8930°W)
Time: 19:04:16
(UTC-06:00)

Milstar 3 - Pass Details

Date: 19 October 2017
Orbit: 1097 x 5148 km, 28.2° (Epoch: 19 November)

Event Time Altitude Azimuth Distance (km) Brightness Sun altitude
Exits shadow 07:16:40 - 259° (WSW) 3,215 4.6 -7.6°
Reaches altitude 10° 07:17:27 10° 255° (WSW) 2,963 4.4 -7.5°
Maximum altitude 07:23:27 34° 192° (SSW) 1,978 4.1 -6.3°
Drops below altitude 10° 07:31:35 10° 131° (SE) 4,034 6.8 -4.7°
Sets 07:36:08 0° 123° (ESE) 5,565 7.9 -3.8°
